sat.trackr.live / text

‹ back to catalog

STARLINK-4773

NORAD 53838 · 2022-114W

PAYLOAD ACTIVE UNKNOWN

§ Identity

Operator
Country
US
Launch date
2022-09-19
Launch site
AFETR
Launch vehicle
Mass (kg)
RCS (m²)

Purposes: comms

External: N2YO · Heavens-Above · Gunter

§ Orbital elements

Epoch: 2026-09-20T06:22:57.351648Z

Period
95.44 min
Inclination
53.1606°
Eccentricity
0.0001571
Mean motion
15.08832568 rev/d
Perigee alt
538.7 km
Apogee alt
540.9 km
Semi-major
6,917.9 km
B*
2.7519e-5
RAAN
140.1426°
Arg perigee
85.0294°
Mean anomaly
275.0877°
Rev number
22,234

§ Raw data

STARLINK-47731 53838U 22114W   26263.26594157  .00000150  00000+0  27519-4 0  99982 53838  53.1606 140.1426 0001571  85.0294 275.0877 15.08832568222345

JSON: /api/v1/satellites/53838 · /tle

For live sub-satellite position, see the globe view (requires WebGL).

§ Visibility from observer

Set your observer location to see the next 7 days of passes ≥ 10°. The values pass through the URL so the page stays shareable.

No JS? Fill the form by hand. The geolocation button needs JavaScript.